Lid_Strength_Index
-0 0 1 4 10 12 15 13 9 10 10 6 6 7 8 7 8 12 2 1 0 0 -0 -1 -1 -2 -2 -2 -2 -2 -1 -1 -2 -1 -1 -1 -2 -2 -2 -2 -2 -2 -2 -2 -2 -2 -1 -1 -1
-0 1 5 8 12 16 14 10 11 9 7 6 6 6 7 9 5 4 3 1 -0 -0 -0 -0 -1 -2 -2 -2 -1 -1 -1 -1 -1 -1 -2 -2 -2 -2 -2 -2 -2 -2 -2 -2 -2 -2 -2 -2 -1
1 5 10 10 13 15 14 10 9 8 6 6 7 5 6 7 4 3 1 0 0 0 -0 -0 -1 -1 -2 -2 -1 -1 -1 -1 -1 -2 -2 -2 -2 -2 -2 -2 -2 -2 -2 -2 -2 -1 -2 -2 -2
5 8 9 12 13 12 10 9 8 8 7 6 6 8 5 3 4 2 0 0 0 1 0 -1 -1 -1 -2 -2 -1 -1 -1 -1 -2 -2 -1 -1 -1 -2 -2 -2 -2 -2 -2 -1 -1 -1 -1 -1 -1
9 9 12 14 13 11 9 8 7 8 7 7 6 8 7 3 1 1 1 0 1 1 0 -0 -1 -1 -2 -1 -1 -1 -1 -1 -1 -1 -1 -1 -1 -2 -2 -2 -1 -1 -1 -1 -1 -1 -1 -2 -2
11 11 14 14 13 10 9 7 7 7 7 7 7 7 7 2 2 1 1 1 0 1 0 -0 -1 -1 -1 -1 -1 -1 -1 -1 -1 -1 -2 -1 -1 -1 -2 -2 -1 -1 -1 -1 -1 -1 -2 -2 -2
13 13 15 13 13 11 9 6 8 8 8 7 5 9 6 4 2 1 1 0 0 1 0 0 -0 -1 -1 -1 -1 -1 -1 -1 -1 -1 -2 -2 -1 -2 -2 -2 -2 -1 -2 -2 -2 -2 -2 -2 -2
13 14 16 14 13 12 9 7 6 7 8 4 4 9 9 4 2 1 1 1 1 1 1 1 0 -0 -0 -0 -1 -1 -1 -1 -1 -1 -1 -2 -2 -2 -2 -2 -2 -2 -2 -2 -2 -2 -2 -2 -2
13 16 18 15 12 12 8 9 6 5 7 6 5 5 4 2 2 2 2 2 1 1 2 2 1 0 -0 -0 -1 -1 -1 -1 -1 -1 -1 -1 -1 -1 -1 -1 -2 -2 -2 -2 -2 -2 -2 -2 -2
14 17 16 12 11 11 8 8 7 7 8 7 6 4 3 3 3 4 4 4 3 2 1 2 1 1 -0 -0 -0 -0 -0 -0 -0 -0 -0 -0 -0 -1 -1 -1 -2 -2 -2 -2 -2 -2 -2 -1 -0
16 16 14 12 11 10 11 8 6 8 10 7 7 6 4 4 4 4 3 3 3 2 1 1 1 0 -0 0 -0 -0 -0 -0 -0 -0 -0 -0 -1 -0 0 0 -0 -1 -1 0 0 0 1 1 0
14 14 13 13 12 12 12 7 8 7 7 5 5 4 4 5 4 4 4 3 3 2 1 1 1 0 0 0 -0 -0 -0 -0 -0 -0 -0 -0 1 1 1 1 -0 0 0 2 1 2 2 3 3
15 14 13 12 13 13 9 8 8 8 5 4 4 4 5 4 4 3 3 2 2 2 1 1 0 0 0 1 0 0 0 0 -0 -0 -0 -0 0 0 1 0 1 2 3 3 3 3 3 4 3
13 14 13 13 13 13 10 10 8 6 5 6 5 5 5 4 4 4 3 3 3 2 2 1 1 0 0 1 1 0 0 1 0 -0 -0 -0 -0 1 2 2 3 3 4 4 3 4 4 5 4
14 15 14 13 13 11 8 11 10 6 6 7 6 5 5 4 4 4 3 3 2 2 1 1 1 0 1 1 1 1 1 1 1 0 -0 -0 1 3 3 3 4 5 5 5 5 5 5 6 5
15 16 17 14 13 9 9 13 9 7 7 8 7 6 5 5 4 3 3 2 2 2 2 1 0 0 1 1 1 2 2 1 1 1 1 2 2 3 4 5 5 5 5 5 5 6 6 6 5
17 18 17 14 13 11 11 13 10 8 8 8 7 6 6 5 4 3 2 2 2 2 2 1 1 1 1 1 1 2 2 2 3 3 3 3 4 4 5 6 6 6 6 6 6 6 6 6 6
17 17 17 15 13 13 14 11 9 8 8 8 7 6 6 6 5 3 3 2 2 2 2 2 1 1 1 1 2 3 4 5 4 4 4 4 5 5 6 7 7 7 7 7 7 7 7 7 5
15 15 14 12 11 11 12 11 10 8 8 8 8 8 7 6 4 4 4 2 2 2 3 2 2 2 1 2 3 5 6 6 6 6 6 6 6 7 7 7 7 7 7 7 5 7 7 7 4
13 13 13 11 9 10 11 12 10 9 9 8 8 8 7 7 5 4 3 4 3 3 3 2 2 2 1 1 2 4 6 7 7 7 7 7 7 8 8 8 8 7 7 6 6 6 8 8 7
12 14 13 12 10 11 12 13 11 9 9 8 8 7 6 6 6 5 4 4 3 3 3 2 2 2 1 1 5 7 7 8 8 8 8 8 8 8 8 8 9 7 7 7 6 5 5 7 8
14 12 12 11 12 15 13 18 13 11 11 10 9 8 7 6 5 5 4 4 3 3 2 1 1 1 1 4 4 6 6 8 9 8 8 9 8 8 8 8 7 7 7 7 6 6 8 8 8
13 11 13 11 13 14 13 16 15 11 12 11 9 8 7 5 5 5 5 3 3 2 2 2 2 2 3 4 4 5 6 7 8 9 9 9 8 8 8 7 7 7 7 8 8 9 8 9 8
10 11 11 12 15 17 15 15 17 14 12 11 9 8 7 7 5 5 5 3 3 2 2 2 2 4 4 4 5 5 7 8 9 9 9 9 9 8 8 8 8 9 8 9 9 10 9 9 9
12 15 19 18 19 19 14 16 16 11 10 10 9 8 7 6 6 6 6 4 4 3 3 2 3 5 4 4 5 6 7 7 8 8 9 9 9 9 10 9 9 9 9 9 10 10 9 9 9
14 14 18 21 19 18 13 19 15 9 9 9 8 7 6 6 6 6 5 6 6 5 5 7 8 8 8 8 8 6 7 7 8 7 8 9 9 10 9 10 10 10 10 10 10 10 10 9 9
13 14 13 15 17 18 16 15 11 10 9 8 8 7 6 6 6 6 5 5 6 8 8 8 8 7 7 7 7 9 9 9 9 8 8 9 9 9 10 10 10 10 10 10 10 10 10 10 10
11 11 15 16 20 21 17 17 17 13 11 9 9 8 7 6 5 6 6 5 5 5 6 6 7 7 7 7 7 8 8 8 9 9 9 10 9 10 10 10 11 10 10 10 10 11 11 11 10
12 13 14 15 16 19 20 17 13 12 10 10 9 8 7 6 5 5 5 6 5 5 5 6 6 7 8 8 7 8 8 9 9 9 9 10 10 10 10 10 10 11 10 10 10 11 11 10 10
11 13 13 17 17 16 17 17 10 10 10 8 8 7 6 5 5 5 5 6 6 6 6 7 7 7 8 8 10 9 8 8 9 10 10 10 10 10 10 10 10 10 10 10 10 10 9 9 9